FW6147 Weather Reports


time (UTC)temp
F
wind
direction
speed
knots
gust
knots
rain 1hr
in
rain 24hr
in
rain mn
in
humidity
%
barometer
mb
20260903164602 79 52 2.6 6.1 0.00 0.00 0.00 57 1022.2
20260903164055 79 42 1.7 4.3 0.00 0.00 0.00 59 1022.3
20260903163555 78 53 2.6 4.3 0.00 0.00 0.00 61 1022.1
20260903163102 78 8 1.7 4.3 0.00 0.00 0.00 62 1022.3
20260903162555 77 358 1.7 4.3 0.00 0.00 0.00 62 1022.2
20260903162055 77 354 1.7 3.5 0.00 0.00 0.00 63 1022.3
20260903161608 77 354 0.9 2.6 0.00 0.00 0.00 64 1022.2
20260903161055 76 354 0.9 3.5 0.00 0.00 0.00 64 1022.3
20260903160555 76 354 1.7 3.5 0.00 0.00 0.00 63 1022.3
20260903160105 76 354 1.7 4.3 0.00 0.00 0.00 65 1022.3
20260903155551 75 355 1.7 4.3 0.00 0.00 0.00 67 1022.3
20260903155054 75 354 0.0 2.6 0.00 0.00 0.00 67 1022.3
20260903154604 75 354 0.9 2.6 0.00 0.00 0.00 68 1022.3
20260903154056 74 353 0.9 2.6 0.00 0.00 0.00 68 1022.2
20260903153557 74 353 0.9 2.6 0.00 0.00 0.00 68 1022.2
20260903153103 74 336 0.9 2.6 0.00 0.00 0.00 69 1022.1
20260903152552 74 328 0.9 2.6 0.00 0.00 0.00 68 1022.2
20260903152057 74 323 0.9 2.6 0.00 0.00 0.00 69 1022.2
20260903151612 74 0 0.0 1.7 0.00 0.00 0.00 69 1022.2
20260903151055 74 321 0.9 1.7 0.00 0.00 0.00 70 1022.2
20260903150556 73 321 0.9 1.7 0.00 0.00 0.00 69 1022.2
20260903150106 73 0 0.0 2.6 0.00 0.00 0.00 71 1022.3
20260903145555 73 320 0.9 2.6 0.00 0.00 0.00 70 1022.3
20260903145055 73 319 0.9 2.6 0.00 0.00 0.00 70 1022.3
20260903144608 73 294 0.0 2.6 0.00 0.00 0.00 70 1022.2
20260903144055 73 0 0.9 3.5 0.00 0.00 0.00 69 1022.2
20260903143554 73 294 0.0 3.5 0.00 0.00 0.00 69 1022.3
20260903143110 73 294 0.9 3.5 0.00 0.00 0.00 69 1022.2
20260903142556 73 0 0.0 3.5 0.00 0.00 0.00 69 1022.3
20260903142055 73 160 0.9 4.3 0.00 0.00 0.00 70 1022.4
20260903141601 73 158 1.7 6.1 0.00 0.00 0.00 70 1022.3
20260903141055 72 174 2.6 6.1 0.00 0.00 0.00 71 1022.2
20260903140556 72 170 3.5 6.1 0.00 0.00 0.00 71 1022.2
20260903140105 71 173 3.5 7.0 0.00 0.00 0.00 72 1022.1
20260903135555 71 155 3.5 7.8 0.00 0.00 0.00 73 1022.1
20260903135055 70 150 4.3 7.8 0.00 0.00 0.00 74 1022.1
20260903134610 70 148 5.2 7.8 0.00 0.00 0.00 74 1022.0
20260903134054 69 152 3.5 7.8 0.00 0.00 0.00 75 1022.1
20260903133555 69 145 3.5 7.8 0.00 0.00 0.00 76 1022.0
20260903133109 69 141 3.5 6.1 0.00 0.00 0.00 76 1022.0
20260903132555 68 148 3.5 5.2 0.00 0.00 0.00 76 1022.0
20260903132056 68 151 2.6 7.0 0.00 0.00 0.00 76 1021.9
20260903131608 68 171 3.5 7.0 0.00 0.00 0.00 76 1021.9
20260903131055 68 162 4.3 7.0 0.00 0.00 0.00 76 1021.8
20260903130554 68 149 3.5 6.1 0.00 0.00 0.00 76 1021.7
20260903130111 68 139 3.5 7.0 0.00 0.00 0.00 76 1021.6
20260903125556 68 133 3.5 7.0 0.00 0.00 0.00 76 1021.6
20260903125056 68 119 3.5 7.0 0.00 0.00 0.00 76 1021.6
20260903124610 68 127 4.3 7.0 0.00 0.00 0.00 76 1021.6
20260903124056 68 122 2.6 6.1 0.00 0.00 0.00 76 1021.5
20260903123557 68 125 2.6 5.2 0.00 0.00 0.00 75 1021.5
20260903123104 68 126 2.6 9.6 0.00 0.00 0.00 75 1021.4
20260903122555 69 134 3.5 9.6 0.00 0.00 0.00 75 1021.5
20260903122056 69 148 5.2 9.6 0.00 0.00 0.00 75 1021.4
20260903121604 69 158 5.2 8.7 0.00 0.00 0.00 74 1021.5
20260903121055 69 155 5.2 9.6 0.00 0.00 0.00 74 1021.5
20260903120558 69 148 5.2 9.6 0.00 0.00 0.00 74 1021.5
20260903120106 69 123 4.3 9.6 0.00 0.00 0.00 74 1021.5
20260903115555 70 162 5.2 10.4 0.00 0.00 0.00 73 1021.5
20260903115054 70 132 6.1 10.4 0.00 0.00 0.00 73 1021.4
20260903114611 70 155 7.0 10.4 0.00 0.00 0.00 73 1021.4
20260903114057 70 153 7.0 10.4 0.00 0.00 0.00 73 1021.3
20260903113601 70 161 5.2 8.7 0.00 0.00 0.00 73 1021.4
20260903113112 70 139 6.1 9.6 0.00 0.00 0.00 74 1021.3
20260903112556 70 146 6.1 9.6 0.00 0.00 0.00 74 1021.3
20260903112059 71 153 6.1 11.3 0.00 0.00 0.00 74 1021.3
20260903111601 71 126 7.0 11.3 0.00 0.00 0.00 75 1021.3
20260903111057 71 136 6.1 9.6 0.00 0.00 0.00 75 1021.1
20260903110554 72 136 4.3 7.0 0.00 0.00 0.00 75 1021.1
20260903110107 72 146 4.3 7.0 0.00 0.00 0.00 75 1021.0
20260903105559 72 123 3.5 6.1 0.00 0.00 0.00 74 1021.0
20260903105057 72 130 2.6 5.2 0.00 0.00 0.00 73 1021.0
20260903104607 72 122 3.5 5.2 0.00 0.00 0.00 74 1021.0
20260903104054 72 103 2.6 4.3 0.00 0.00 0.00 74 1021.1
20260903103556 72 47 0.9 4.3 0.00 0.00 0.00 74 1021.1
20260903103104 72 44 2.6 6.1 0.00 0.00 0.00 74 1021.0
20260903102557 72 3 3.5 6.1 0.00 0.00 0.00 74 1021.1
20260903102055 72 15 0.0 4.3 0.00 0.00 0.00 73 1021.1
20260903101611 72 0 0.0 0.9 0.00 0.00 0.00 73 1021.0
20260903101056 72 0 0.0 0.9 0.00 0.00 0.00 72 1021.2
20260903100556 72 0 0.0 0.9 0.00 0.00 0.00 72 1021.2
20260903095555 73 0 0.0 4.3 0.00 0.00 0.00 71 1021.1
20260903095056 73 0 1.7 4.3 0.00 0.00 0.00 72 1021.1
20260903094609 73 123 0.0 2.6 0.00 0.00 0.00 71 1021.2
20260903094056 73 0 0.0 0.0 0.00 0.00 0.00 70 1021.2
20260903093559 73 0 0.0 1.7 0.00 0.00 0.00 69 1021.2
20260903093107 74 0 0.0 2.6 0.00 0.00 0.00 69 1021.1
20260903092600 74 0 0.9 2.6 0.00 0.00 0.00 69 1021.3
20260903092056 74 123 0.9 2.6 0.00 0.00 0.00 69 1021.3
20260903091607 74 123 0.0 1.7 0.00 0.00 0.00 69 1021.4
20260903091053 74 123 0.0 1.7 0.00 0.00 0.00 69 1021.3
20260903090611 74 123 0.9 2.6 0.00 0.00 0.00 69 1021.3
20260903090105 74 123 0.0 2.6 0.00 0.00 0.00 69 1021.3
20260903085555 74 0 0.0 2.6 0.00 0.00 0.00 69 1021.4
20260903085053 74 0 0.0 2.6 0.00 0.00 0.00 69 1021.5
20260903084604 74 123 0.0 2.6 0.00 0.00 0.00 69 1021.4
20260903084056 73 123 0.9 2.6 0.00 0.00 0.00 69 1021.5
20260903083553 73 123 0.9 2.6 0.00 0.00 0.00 69 1021.6
20260903083104 73 0 0.0 0.9 0.00 0.00 0.00 70 1021.7
20260903082555 73 0 0.0 0.0 0.00 0.00 0.00 70 1021.7
20260903082055 73 0 0.0 0.0 0.00 0.00 0.00 69 1021.9
20260903081601 73 0 0.0 0.0 0.00 0.00 0.00 69 1021.9
20260903081056 73 0 0.0 2.6 0.00 0.00 0.00 70 1021.8
20260903080556 74 0 0.0 2.6 0.00 0.00 0.00 71 1021.8
20260903075554 74 0 0.0 3.5 0.00 0.00 0.00 70 1021.9
20260903075054 74 0 0.0 3.5 0.00 0.00 0.00 70 1021.8
20260903074603 74 0 0.9 2.6 0.00 0.00 0.00 69 1021.9
20260903074056 74 123 0.9 3.5 0.00 0.00 0.00 68 1021.8
20260903073555 74 123 1.7 3.5 0.00 0.00 0.00 69 1021.9
20260903073105 74 123 1.7 2.6 0.00 0.00 0.00 68 1021.9
20260903072556 74 123 1.7 3.5 0.00 0.00 0.00 68 1021.9
20260903072055 75 123 1.7 3.5 0.00 0.00 0.00 68 1022.0
20260903071604 75 123 1.7 2.6 0.00 0.00 0.00 68 1021.9
20260903071059 75 123 0.0 2.6 0.00 0.00 0.00 68 1022.0
20260903070556 75 0 0.0 0.9 0.00 0.00 0.00 67 1022.0
20260903070105 75 0 0.0 0.9 0.00 0.00 0.00 66 1021.9
20260903065554 75 0 0.0 1.7 0.00 0.00 0.00 66 1022.0
20260903065057 75 0 0.0 1.7 0.00 0.00 0.00 65 1021.8
20260903064603 75 123 0.0 1.7 0.00 0.00 0.00 65 1021.9
20260903064055 76 0 0.0 2.6 0.00 0.00 0.00 65 1021.8
20260903063554 76 123 0.0 3.5 0.00 0.00 0.00 65 1021.7
20260903063104 76 123 1.7 3.5 0.00 0.00 0.00 64 1021.7
20260903062556 76 123 0.9 4.3 0.00 0.00 0.00 64 1021.7
20260903062056 76 123 1.7 4.3 0.00 0.00 0.00 64 1021.6
20260903061617 76 123 1.7 4.3 0.00 0.00 0.00 64 1021.6
20260903061054 76 122 2.6 6.1 0.00 0.00 0.00 64 1021.6
20260903060555 75 114 2.6 7.0 0.00 0.00 0.00 64 1021.6
20260903060145 75 129 3.5 7.0 0.00 0.00 0.00 65 1021.5
20260903023556 80 288 0.9 5.2 0.00 0.00 0.00 55 1020.7
20260903023135 80 299 2.6 5.2 0.00 0.00 0.00 54 1020.8
20260903022619 80 288 2.6 5.2 0.00 0.00 0.00 52 1020.6
20260903022058 80 292 2.6 6.1 0.00 0.00 0.00 51 1020.7
20260903021611 80 309 2.6 6.1 0.00 0.00 0.00 51 1020.5
20260903021055 80 288 3.5 6.1 0.00 0.00 0.00 51 1020.5
20260903020556 81 302 2.6 5.2 0.00 0.00 0.00 53 1020.6
20260903020108 81 307 2.6 5.2 0.00 0.00 0.00 53 1020.4
20260903015555 81 294 2.6 5.2 0.00 0.00 0.00 53 1020.2
20260903015055 81 305 2.6 5.2 0.00 0.00 0.00 52 1020.2
20260903014604 81 306 1.7 5.2 0.00 0.00 0.00 52 1020.2
20260903014149 81 297 1.7 4.3 0.00 0.00 0.00 51 1020.2
20260902183626 84 0 0.9 3.5 0.00 0.00 0.00 39 1023.1
20260902183115 83 68 0.9 2.6 0.00 0.00 0.00 39 1023.1
20260902182555 83 0 0.0 2.6 0.00 0.00 0.00 39 1023.2
20260902182059 83 0 0.9 5.2 0.00 0.00 0.00 39 1023.3
20260902181606 84 68 0.9 6.1 0.00 0.00 0.00 39 1023.4
20260902181055 84 68 2.6 6.1 0.00 0.00 0.00 38 1023.5
20260902180553 84 63 4.3 6.1 0.00 0.00 0.00 39 1023.6
20260902175553 85 1 2.6 7.0 0.00 0.00 0.00 39 1023.6
20260902175055 85 3 4.3 7.0 0.00 0.00 0.00 41 1023.6
20260902174603 85 360 3.5 6.1 0.00 0.00 0.00 40 1023.6
20260902174058 85 359 1.7 4.3 0.00 0.00 0.00 43 1023.6
20260902173553 84 25 0.9 7.0 0.00 0.00 0.00 43 1023.7
20260902173111 84 11 1.7 7.0 0.00 0.00 0.00 43 1023.7
20260902172555 84 359 2.6 7.0 0.00 0.00 0.00 46 1023.8
20260902172054 83 28 0.9 6.1 0.00 0.00 0.00 44 1023.8
20260902171606 83 0 2.6 7.8 0.00 0.00 0.00 44 1023.7
20260902171055 83 360 2.6 7.8 0.00 0.00 0.00 44 1023.7
20260902170555 83 46 3.5 7.0 0.00 0.00 0.00 45 1023.8
20260902170134 83 29 3.5 5.2 0.00 0.00 0.00 45 1023.8
20260902165554 82 0 1.7 4.3 0.00 0.00 0.00 48 1023.8
20260902165059 82 0 0.0 4.3 0.00 0.00 0.00 48 1023.7